This demonstration page uses our WeatherBlox Daily Observations layout. Learn more.

Left ArrowRight Arrow

38.20091, -84.87328

Hourly Observations for October 11, 2021

Temp ( °F °C ) Dew Point ( °F °C ) Humidity (%) Winds ( mph kmh ) Pressure ( in mb ) Visibility ( mi km ) Precip ( " mm )
12:53 am 00:53 Clear 68 20 64 17.8 87 87 SSE 6 9 29.89 1012 10 16 N/A
1:53 am 01:53 Clear 67 19.4 64 17.8 91 91 SSE 5 7 29.89 1012 10 16 N/A
2:53 am 02:53 Clear 64 17.8 62 16.7 93 93 N N/A 29.90 1012 10 16 N/A
3:53 am 03:53 Clear 62 16.7 60 15.6 93 93 N N/A 29.91 1013 8 13 N/A
4:53 am 04:53 Clear 63 17.2 62 16.7 97 97 SSE 5 7 29.92 1013 9 14 N/A
5:53 am 05:53 Clear 65 18.3 63 17.2 93 93 SSE 5 7 29.93 1013 10 16 N/A
6:53 am 06:53 Clear 64 17.8 62 16.7 93 93 SSE 5 7 29.93 1014 10 16 N/A
7:53 am 07:53 Sunny 64 17.8 61 16.1 90 90 SE 5 7 29.94 1014 9 14 N/A
8:53 am 08:53 Sunny 67 19.4 63 17.2 87 87 N N/A 29.94 1014 10 16 N/A
9:53 am 09:53 Sunny 71 21.7 65 18.3 81 81 S 10 17 29.95 1014 10 16 N/A
10:53 am 10:53 Sunny 76 24.4 66 18.9 72 72 SSW 12 19 29.94 1014 10 16 N/A
11:53 am 11:53 Sunny 78 25.6 63 17.2 60 60 S 16 26 29.92 1013 10 16 N/A
12:53 pm 12:53 Sunny 80 26.7 63 17.2 56 56 S 12 19 29.90 1013 10 16 N/A
1:53 pm 13:53 Sunny 81 27.2 61 16.1 51 51 S 16 26 29.88 1012 10 16 N/A
2:53 pm 14:53 Sunny 80 26.7 61 16.1 52 52 S 12 19 29.86 1011 10 16 N/A
3:53 pm 15:53 Sunny 82 27.8 61 16.1 49 49 S 15 24 29.83 1010 10 16 N/A
4:53 pm 16:53 Sunny 81 27.2 63 17.2 54 54 SE 15 24 29.81 1010 10 16 N/A
5:53 pm 17:53 Sunny 79 26.1 63 17.2 58 58 SSE 13 20 29.81 1010 10 16 N/A
6:53 pm 18:53 Sunny 77 25 62 16.7 60 60 S 12 19 29.83 1010 10 16 N/A
7:53 pm 19:53 Mostly Clear 75 23.9 62 16.7 64 64 SSE 13 20 29.84 1011 10 16 N/A
8:53 pm 20:53 Mostly Cloudy 74 23.3 62 16.7 67 67 SSE 10 17 29.85 1011 10 16 N/A
9:53 pm 21:53 Mostly Cloudy 74 23.3 62 16.7 67 67 SSE 12 19 29.85 1011 10 16 N/A
10:53 pm 22:53 Partly Cloudy 73 22.8 62 16.7 69 69 S 9 15 29.86 1011 10 16 N/A
11:53 pm 23:53 Clear 71 21.7 62 16.7 73 73 S 8 13 29.87 1011 10 16 N/A

Powered by AerisWeather